Home > Weather > Klosterneuburg > Past weeks

Flag for Austria Weather for the Past 2 Weeks in Klosterneuburg, Lower Austria, Austria

Now
46 °F

Light rain. Overcast.


Feels Like: 45 °F
Forecast: 38 / 45 °F
Wind: 3 mph from South

Location: Wien / Hohe Warte

Current Time: Feb 14, 2016 at 6:28:33 PM

Latest Report: Feb 14, 2016 at 6:00 PM


Visibility: 13 mi

Pressure: 29.29 "Hg

Humidity: 86%

Dew point: 42 °F

Location of KlosterneuburgLocation

Historic Weather in Klosterneuburg — Graph

°F

Klosterneuburg Temperature Yesterday

Maximum temperature yesterday: 46 °F (at 2:00 PM)
Minimum temperature yesterday: 37 °F (at 8:00 AM)
Average temperature yesterday: 40 °F

High & Low Weather Summary for the Past Weeks

 TemperatureHumidityPressure
High56 °F (Feb 7, 3:00 PM)98% (Jan 30, 6:00 PM)30.39 "Hg (Jan 30, 6:00 PM)
Low31 °F (Feb 12, 7:00 AM)46% (Feb 7, 3:00 PM)29.26 "Hg (Feb 10, 12:00 AM)
Average43 °F75%29.84 "Hg
* Reported Jan 30 5:00 PM — Feb 14 5:00 PM, Klosterneuburg, Weather by CustomWeather, © 2016

Note: Actual official high and low records may vary slightly from our data, if they occured in-between our weather recording intervals... More about our weather records

Advertising

Klosterneuburg Weather History for the Previous 24 Hours

 ConditionsComfort  
Time TempWeatherWind HumidityBarometerVisibility
5:00 PM
Sun, Feb 14
47 °FLight rain. Overcast.3 mph75%29.26 "Hg16 mi
4:00 PM47 °FOvercast.5 mph75%29.29 "Hg12 mi
3:00 PM46 °FOvercast.5 mph80%29.29 "Hg12 mi
2:00 PM44 °FOvercast.6 mph81%29.32 "Hg9 mi
1:00 PM42 °FOvercast.3 mph82%29.32 "Hg9 mi
12:00 PM38 °FLow clouds.2 mph90%29.35 "Hg6 mi
11:00 AM37 °FLow clouds.3 mph92%29.35 "Hg5 mi
10:00 AM36 °FFog.2 mph94%29.35 "Hg5 mi
9:00 AM35 °FFog.3 mph98%29.35 "Hg1 mi
8:00 AM35 °FFog.3 mph98%29.35 "Hg1 mi
7:00 AM35 °FFog.2 mph97%29.35 "Hg1 mi
6:00 AM36 °FFog.1 mph96%29.35 "Hg1 mi
9:00 PM
Sat, Feb 13
38 °FPassing clouds.2 mph88%29.35 "Hg11 mi
8:00 PM40 °FOvercast.2 mph81%29.35 "Hg17 mi
7:00 PM41 °FOvercast.5 mph75%29.38 "Hg19 mi
6:00 PM42 °FOvercast.3 mph72%29.38 "Hg16 mi
Weather by CustomWeather, © 2016

See weather overviewHow to use our weather pages